When you browse on this site, cookies collect data to enhance your experience and personalize the content and advertising you see.
Visit our Privacy Policy to learn more. By continuing to use the site, you agree to this use of cookies and data.
  • In Deutschland
  • Länderverzeichnis
  • Für 7 Tage
  • Wassertemperatur
  • Satellitenkarten
  • Wetterkarte
  • Widgets
  • user-avatar
    Anmelden

    Stündliche Wetter Samos

    Heute, 16 Dezember, Sonntag

    Zeit Temperatur Niederschläge Wind Luftdruck Luftfeuchtigkeit
    00:00 +9°C° 0.7 mm 7 m/S 721 mmHg 84%
    01:00 +9°C° 0.7 mm 7 m/S 720 mmHg 85%
    02:00 +9°C° 0.7 mm 6 m/S 720 mmHg 85%
    03:00 +8°C° 0.6 mm 6 m/S 720 mmHg 85%
    04:00 +8°C° 0.6 mm 6 m/S 719 mmHg 86%
    05:00 +8°C° 0.6 mm 6 m/S 719 mmHg 86%
    06:00 +8°C° 1.2 mm 6 m/S 719 mmHg 87%
    07:00 +8°C° 1.2 mm 6 m/S 719 mmHg 87%
    08:00 +8°C° 1.2 mm 7 m/S 718 mmHg 88%
    09:00 +9°C° 1.9 mm 6 m/S 718 mmHg 85%
    10:00 +9°C° 1.9 mm 6 m/S 718 mmHg 83%
    11:00 +10°C° 1.9 mm 6 m/S 718 mmHg 80%
    12:00 +10°C° 1.5 mm 6 m/S 718 mmHg 80%
    13:00 +10°C° 1.5 mm 5 m/S 718 mmHg 80%
    14:00 +12°C° 1.5 mm 5 m/S 717 mmHg 80%
    15:00 +10°C° 0.4 mm 5 m/S 717 mmHg 82%
    16:00 +10°C° 0.4 mm 5 m/S 717 mmHg 83%
    17:00 +10°C° 0.4 mm 4 m/S 717 mmHg 85%
    18:00 +10°C° 0.2 mm 4 m/S 717 mmHg 86%
    19:00 +10°C° 0.2 mm 4 m/S 717 mmHg 86%
    20:00 +9°C° 0.2 mm 3 m/S 718 mmHg 87%
    21:00 +9°C° 0.2 mm 3 m/S 718 mmHg 87%
    22:00 +9°C° 0.2 mm 3 m/S 718 mmHg 88%
    23:00 +9°C° 0.2 mm 3 m/S 718 mmHg 89%

    Morgen, 17 Dezember, Montag

    Zeit Temperatur Niederschläge Wind Luftdruck Luftfeuchtigkeit
    00:00 +8°C° 0.2 mm 3 m/S 718 mmHg 89%
    01:00 +8°C° 0.2 mm 3 m/S 719 mmHg 89%
    02:00 +8°C° 0.2 mm 3 m/S 719 mmHg 90%
    03:00 +8°C° 0 mm 2 m/S 719 mmHg 90%
    04:00 +8°C° 0 mm 2 m/S 719 mmHg 89%
    05:00 +7°C° 0 mm 2 m/S 718 mmHg 89%
    06:00 +7°C° 0 mm 2 m/S 719 mmHg 89%
    07:00 +7°C° 0 mm 2 m/S 719 mmHg 88%
    08:00 +7°C° 0 mm 2 m/S 720 mmHg 88%
    09:00 +9°C° 0 mm 2 m/S 720 mmHg 81%
    10:00 +12°C° 0 mm 2 m/S 720 mmHg 75%
    11:00 +14°C° 0 mm 1 m/S 720 mmHg 69%
    12:00 +14°C° 0 mm 2 m/S 720 mmHg 68%
    13:00 +14°C° 0 mm 2 m/S 720 mmHg 66%
    14:00 +13°C° 0 mm 3 m/S 720 mmHg 65%
    15:00 +12°C° 0 mm 3 m/S 720 mmHg 71%
    16:00 +11°C° 0 mm 3 m/S 720 mmHg 77%
    17:00 +10°C° 0 mm 3 m/S 720 mmHg 82%
    18:00 +10°C° 0.1 mm 3 m/S 720 mmHg 84%
    19:00 +10°C° 0.1 mm 3 m/S 720 mmHg 86%
    20:00 +9°C° 0.1 mm 3 m/S 720 mmHg 88%
    21:00 +9°C° 0 mm 3 m/S 720 mmHg 90%
    22:00 +9°C° 0 mm 2 m/S 720 mmHg 91%
    23:00 +9°C° 0 mm 2 m/S 720 mmHg 92%

    übermorgen, 18 Dezember, Dienstag

    Zeit Temperatur Niederschläge Wind Luftdruck Luftfeuchtigkeit
    00:00 +9°C° 0 mm 2 m/S 720 mmHg 93%
    01:00 +9°C° 0 mm 2 m/S 720 mmHg 93%
    02:00 +9°C° 0 mm 2 m/S 720 mmHg 94%
    03:00 +8°C° 0 mm 3 m/S 719 mmHg 93%
    04:00 +7°C° 0 mm 4 m/S 719 mmHg 93%
    05:00 +7°C° 0 mm 5 m/S 718 mmHg 93%
    06:00 +7°C° 2.4 mm 5 m/S 718 mmHg 92%
    07:00 +7°C° 2.4 mm 5 m/S 718 mmHg 92%
    08:00 +7°C° 2.4 mm 5 m/S 718 mmHg 91%
    09:00 +7°C° 3.8 mm 5 m/S 718 mmHg 92%
    10:00 +7°C° 3.8 mm 6 m/S 718 mmHg 93%
    11:00 +7°C° 3.8 mm 6 m/S 718 mmHg 93%
    12:00 +7°C° 1 mm 6 m/S 717 mmHg 91%
    13:00 +7°C° 1 mm 6 m/S 717 mmHg 90%
    14:00 +8°C° 1 mm 5 m/S 716 mmHg 88%
    15:00 +7°C° 0.3 mm 5 m/S 716 mmHg 88%
    16:00 +7°C° 0.3 mm 4 m/S 717 mmHg 89%
    17:00 +7°C° 0.3 mm 4 m/S 717 mmHg 89%
    18:00 +8°C° 0.4 mm 3 m/S 717 mmHg 89%
    19:00 +8°C° 0.4 mm 3 m/S 717 mmHg 90%
    20:00 +8°C° 0.4 mm 3 m/S 717 mmHg 90%
    21:00 +8°C° 0.3 mm 3 m/S 718 mmHg 90%
    22:00 +7°C° 0.3 mm 3 m/S 718 mmHg 90%
    23:00 +7°C° 0.3 mm 3 m/S 718 mmHg 90%

    19 Dezember, Mittwoch

    Zeit Temperatur Niederschläge Wind Luftdruck Luftfeuchtigkeit
    00:00 +7°C° 0.3 mm 3 m/S 718 mmHg 90%
    01:00 +7°C° 0.3 mm 3 m/S 719 mmHg 91%
    02:00 +7°C° 0.3 mm 3 m/S 719 mmHg 91%
    03:00 +6°C° 0.1 mm 4 m/S 719 mmHg 91%
    04:00 +5°C° 0.1 mm 5 m/S 719 mmHg 91%
    05:00 +5°C° 0.1 mm 5 m/S 720 mmHg 91%
    06:00 +4°C° 0 mm 6 m/S 720 mmHg 90%
    07:00 +4°C° 0 mm 6 m/S 721 mmHg 90%
    08:00 +4°C° 0 mm 7 m/S 722 mmHg 90%
    09:00 +5°C° 0 mm 7 m/S 722 mmHg 84%
    10:00 +6°C° 0 mm 7 m/S 723 mmHg 79%
    11:00 +8°C° 0 mm 7 m/S 723 mmHg 73%
    12:00 +8°C° 0 mm 7 m/S 723 mmHg 72%
    13:00 +8°C° 0 mm 7 m/S 723 mmHg 70%
    14:00 +8°C° 0 mm 7 m/S 723 mmHg 69%
    15:00 +6°C° 0 mm 7 m/S 723 mmHg 72%
    16:00 +5°C° 0 mm 7 m/S 724 mmHg 75%
    17:00 +4°C° 0 mm 6 m/S 724 mmHg 78%
    18:00 +4°C° 0 mm 6 m/S 724 mmHg 80%
    19:00 +3°C° 0 mm 6 m/S 724 mmHg 81%
    20:00 +3°C° 0 mm 5 m/S 725 mmHg 83%
    21:00 +2°C° 0 mm 5 m/S 725 mmHg 84%
    22:00 +2°C° 0 mm 5 m/S 725 mmHg 85%
    23:00 +2°C° 0 mm 5 m/S 725 mmHg 85%

    20 Dezember, Donnerstag

    Zeit Temperatur Niederschläge Wind Luftdruck Luftfeuchtigkeit
    00:00 +1°C° 0 mm 5 m/S 725 mmHg 86%
    01:00 +1°C° 0 mm 5 m/S 725 mmHg 87%
    02:00 +1°C° 0 mm 5 m/S 726 mmHg 87%
    03:00 0°C° 0 mm 5 m/S 726 mmHg 88%
    04:00 0°C° 0 mm 5 m/S 726 mmHg 88%
    05:00 0°C° 0 mm 5 m/S 726 mmHg 89%
    06:00 0°C° 0 mm 5 m/S 726 mmHg 88%
    07:00 0°C° 0 mm 5 m/S 727 mmHg 88%
    08:00 0°C° 0 mm 5 m/S 727 mmHg 87%
    09:00 +1°C° 0 mm 5 m/S 727 mmHg 80%
    10:00 +3°C° 0 mm 5 m/S 727 mmHg 73%
    11:00 +6°C° 0 mm 5 m/S 727 mmHg 66%
    12:00 +6°C° 0 mm 5 m/S 727 mmHg 62%
    13:00 +7°C° 0 mm 5 m/S 727 mmHg 59%
    14:00 +8°C° 0 mm 5 m/S 727 mmHg 55%
    15:00 +7°C° 0 mm 5 m/S 727 mmHg 58%
    16:00 +6°C° 0 mm 5 m/S 727 mmHg 62%
    17:00 +3°C° 0 mm 5 m/S 727 mmHg 66%
    18:00 +4°C° 0 mm 4 m/S 727 mmHg 68%
    19:00 +3°C° 0 mm 4 m/S 727 mmHg 70%
    20:00 +3°C° 0 mm 4 m/S 727 mmHg 72%
    21:00 +1°C° 0 mm 4 m/S 727 mmHg 73%
    22:00 +1°C° 0 mm 4 m/S 727 mmHg 75%
    23:00 +1°C° 0 mm 4 m/S 727 mmHg 76%

    21 Dezember, Freitag

    Zeit Temperatur Niederschläge Wind Luftdruck Luftfeuchtigkeit
    00:00 +2°C° 0 mm 3 m/S 727 mmHg 76%
    01:00 +1°C° 0 mm 3 m/S 727 mmHg 77%
    02:00 +1°C° 0 mm 3 m/S 727 mmHg 77%
    03:00 +1°C° 0 mm 3 m/S 727 mmHg 77%
    04:00 +1°C° 0 mm 3 m/S 726 mmHg 78%
    05:00 +1°C° 0 mm 3 m/S 726 mmHg 78%
    06:00 +1°C° 0 mm 3 m/S 726 mmHg 77%
    07:00 +2°C° 0 mm 2 m/S 726 mmHg 77%
    08:00 +2°C° 0 mm 2 m/S 727 mmHg 76%
    09:00 +4°C° 0 mm 2 m/S 727 mmHg 68%
    10:00 +7°C° 0 mm 1 m/S 727 mmHg 61%
    11:00 +9°C° 0 mm 1 m/S 727 mmHg 53%
    12:00 +10°C° 0 mm 1 m/S 726 mmHg 51%
    13:00 +10°C° 0 mm 1 m/S 726 mmHg 49%
    14:00 +11°C° 0 mm 1 m/S 725 mmHg 46%
    15:00 +10°C° 0 mm 1 m/S 725 mmHg 51%
    16:00 +9°C° 0 mm 1 m/S 725 mmHg 56%
    17:00 +7°C° 0 mm 1 m/S 725 mmHg 61%
    18:00 +7°C° 0 mm 1 m/S 725 mmHg 62%
    19:00 +7°C° 0 mm 1 m/S 725 mmHg 64%
    20:00 +5°C° 0 mm 2 m/S 725 mmHg 66%
    21:00 +5°C° 0 mm 2 m/S 725 mmHg 66%
    22:00 +4°C° 0 mm 3 m/S 725 mmHg 66%
    23:00 +4°C° 0 mm 4 m/S 724 mmHg 66%
    Mehr zeigen